Flag for Germany Weather past 2 weeks in Nienburg (Weser), Lower Saxony, Germany

Now
81 °F

Passing clouds.


Feels Like: 80 °F
Forecast: 60 / 79 °F
Wind: 12 mph from Northeast

Location: Wunstorf Airport

Current Time: Jul 23, 2014 at 8:33:17 PM

Latest Report: Jul 23, 2014 at 7:20 PM


Visibility: N/A

Pressure: 30.04 "Hg

Humidity: 34%

Dew point: 50 °F

Location of Nienburg (Weser)Location

Historic Weather in Nienburg (Weser) — Graph

°F

Nienburg (Weser) temperature yesterday

Maximum temperature yesterday: 82 °F (at 6:20 PM)
Minimum temperature yesterday: 61 °F (at 4:20 AM)
Average temperature yesterday: 69 °F

Past Weeks' High & Low Weather Summary

 TemperatureHumidityPressure
High90 °F (Jul 19, 2:20 PM)100% (Jul 8, 8:20 PM)30.18 "Hg (Jul 8, 8:20 PM)
Low54 °F (Jul 12, 6:20 AM)31% (Jul 19, 2:20 PM)29.59 "Hg (Jul 9, 2:50 PM)
Average69 °F71%29.94 "Hg
* Reported Jul 8 7:20 PM — Jul 23 7:20 PM, Nienburg (Weser), Weather by CustomWeather, © 2014

Note: Actual official high and low records may vary slightly from our data, if they occured in-between our weather recording intervals... More about our weather records

Advertising

Nienburg (Weser) weather history for previous 24 hours

 ConditionsComfort  
Time TempWeatherWind HumidityBarometerVisibility
7:20 PM
Jul 23
81 °FPassing clouds.12 mph34%30.04 "HgN/A
6:20 PM81 °FPassing clouds.10 mph32%30.04 "HgN/A
5:20 PM81 °FPassing clouds.13 mph37%30.04 "HgN/A
4:20 PM79 °FPassing clouds.12 mph42%30.07 "HgN/A
3:20 PM81 °FPassing clouds.13 mph42%30.07 "HgN/A
2:20 PM81 °FPassing clouds.12 mph45%30.09 "HgN/A
1:20 PM79 °FPassing clouds.10 mph48%30.09 "HgN/A
12:20 PM77 °FPassing clouds.10 mph47%30.09 "HgN/A
11:20 AM75 °FPassing clouds.10 mph50%30.12 "HgN/A
10:20 AM72 °FPassing clouds.13 mph57%30.12 "HgN/A
7:20 AM64 °FPassing clouds.8 mph73%30.15 "HgN/A
6:20 AM61 °FPassing clouds.6 mph83%30.12 "HgN/A
5:20 AM63 °FPassing clouds.3 mph77%30.12 "HgN/A
4:20 AM63 °FMild.3 mph77%30.12 "Hg4 mi
3:20 AM64 °FMild.1 mph68%30.12 "Hg4 mi
2:20 AM66 °FMild.5 mph64%30.12 "Hg4 mi
1:20 AM68 °FMild.8 mph56%30.12 "Hg4 mi
Weather by CustomWeather, © 2014

See weather overviewHow to use our weather pages